TimeCST,TemperatureF,Dew PointF,Humidity,Sea Level PressureIn,VisibilityMPH,Wind Direction,Wind SpeedMPH,Gust SpeedMPH,PrecipitationIn,Events,Conditions,WindDirDegrees,DateUTC
12:15 AM,37.4,35.6,93,30.10,10.0,Calm,Calm,-,N/A,,Clear,0,2013-02-21 06:15:00
12:35 AM,37.4,35.6,93,30.09,10.0,East,3.5,-,N/A,,Clear,80,2013-02-21 06:35:00
12:55 AM,42.8,33.8,70,30.08,10.0,NE,11.5,-,N/A,,Clear,40,2013-02-21 06:55:00
1:15 AM,44.6,33.8,66,30.07,10.0,ENE,4.6,-,N/A,,Clear,70,2013-02-21 07:15:00
1:35 AM,44.6,33.8,66,30.07,10.0,ENE,4.6,-,N/A,,Clear,60,2013-02-21 07:35:00
1:55 AM,44.6,33.8,66,30.06,10.0,ENE,3.5,-,N/A,,Clear,70,2013-02-21 07:55:00
2:15 AM,44.6,32.0,61,30.06,10.0,East,3.5,-,N/A,,Clear,80,2013-02-21 08:15:00
2:35 AM,44.6,32.0,61,30.05,10.0,ENE,4.6,-,N/A,,Clear,60,2013-02-21 08:35:00
3:15 AM,44.6,33.8,66,30.04,10.0,ENE,5.8,-,N/A,,Clear,70,2013-02-21 09:15:00
3:35 AM,44.6,33.8,66,30.03,10.0,NE,4.6,-,N/A,,Clear,50,2013-02-21 09:35:00
3:55 AM,44.6,33.8,66,30.04,10.0,NE,5.8,-,N/A,,Scattered Clouds,50,2013-02-21 09:55:00
4:15 AM,44.6,33.8,66,30.03,10.0,NE,8.1,-,N/A,,Mostly Cloudy,50,2013-02-21 10:15:00
4:35 AM,46.4,33.8,62,30.03,10.0,NE,9.2,-,N/A,,Overcast,50,2013-02-21 10:35:00
4:55 AM,46.4,32.0,57,30.03,10.0,ENE,6.9,-,N/A,,Overcast,70,2013-02-21 10:55:00
5:15 AM,48.2,33.8,58,30.04,10.0,NE,5.8,-,N/A,,Overcast,50,2013-02-21 11:15:00
5:35 AM,48.2,33.8,58,30.04,10.0,ENE,8.1,-,N/A,,Overcast,60,2013-02-21 11:35:00
5:55 AM,50.0,33.8,54,30.05,10.0,ENE,5.8,-,N/A,,Overcast,60,2013-02-21 11:55:00
6:15 AM,50.0,33.8,54,30.05,10.0,ENE,6.9,-,N/A,,Overcast,60,2013-02-21 12:15:00
6:35 AM,50.0,33.8,54,30.05,10.0,ENE,6.9,-,N/A,,Overcast,60,2013-02-21 12:35:00
6:55 AM,50.0,33.8,54,30.05,10.0,ENE,8.1,-,N/A,,Overcast,60,2013-02-21 12:55:00
7:15 AM,50.0,32.0,50,30.06,10.0,ENE,9.2,-,N/A,,Overcast,70,2013-02-21 13:15:00
7:35 AM,51.8,33.8,50,30.07,10.0,ENE,6.9,-,N/A,,Overcast,70,2013-02-21 13:35:00
8:15 AM,51.8,33.8,50,30.07,10.0,ENE,9.2,-,N/A,,Overcast,70,2013-02-21 14:15:00
8:35 AM,53.6,35.6,51,30.07,10.0,East,9.2,-,N/A,,Overcast,80,2013-02-21 14:35:00
8:55 AM,53.6,35.6,51,30.08,10.0,East,11.5,17.3,N/A,,Overcast,90,2013-02-21 14:55:00
9:35 AM,55.4,41.0,58,30.07,10.0,East,9.2,-,N/A,,Overcast,90,2013-02-21 15:35:00
9:55 AM,57.2,41.0,55,30.06,10.0,East,10.4,16.1,N/A,,Overcast,90,2013-02-21 15:55:00
10:15 AM,59.0,42.8,55,30.06,10.0,East,8.1,-,N/A,,Overcast,80,2013-02-21 16:15:00
11:15 AM,62.6,46.4,55,30.03,10.0,East,16.1,20.7,N/A,,Clear,100,2013-02-21 17:15:00
11:35 AM,62.6,50.0,63,30.03,7.0,ESE,11.5,18.4,N/A,,Clear,110,2013-02-21 17:35:00
11:55 AM,64.4,50.0,59,30.02,10.0,ESE,17.3,-,N/A,,Clear,120,2013-02-21 17:55:00
12:15 PM,64.4,50.0,59,30.01,7.0,ESE,18.4,25.3,N/A,,Clear,120,2013-02-21 18:15:00
12:35 PM,64.4,51.8,64,30.00,7.0,ESE,10.4,17.3,N/A,,Clear,110,2013-02-21 18:35:00
12:55 PM,64.4,53.6,68,29.98,7.0,ESE,15.0,23.0,N/A,,Clear,110,2013-02-21 18:55:00
1:15 PM,66.2,55.4,68,29.97,7.0,SE,15.0,20.7,N/A,,Clear,130,2013-02-21 19:15:00
1:35 PM,66.2,55.4,68,29.97,7.0,ESE,15.0,18.4,N/A,,Scattered Clouds,120,2013-02-21 19:35:00
1:55 PM,64.4,57.2,77,29.96,7.0,ESE,10.4,18.4,N/A,,Mostly Cloudy,110,2013-02-21 19:55:00
2:15 PM,66.2,59.0,78,29.95,5.0,ESE,13.8,19.6,N/A,,Haze,120,2013-02-21 20:15:00
2:35 PM,66.2,59.0,78,29.93,7.0,ESE,13.8,23.0,N/A,,Overcast,120,2013-02-21 20:35:00
2:55 PM,68.0,60.8,78,29.92,7.0,ESE,13.8,23.0,N/A,,Overcast,120,2013-02-21 20:55:00
3:15 PM,68.0,60.8,78,29.91,7.0,ESE,20.7,26.5,N/A,,Overcast,120,2013-02-21 21:15:00
3:35 PM,68.0,60.8,78,29.90,7.0,SE,16.1,21.9,N/A,,Overcast,130,2013-02-21 21:35:00
3:55 PM,69.8,60.8,73,29.90,7.0,ESE,16.1,23.0,N/A,,Mostly Cloudy,120,2013-02-21 21:55:00
4:15 PM,69.8,60.8,73,29.90,7.0,SE,10.4,19.6,N/A,,Mostly Cloudy,130,2013-02-21 22:15:00
4:35 PM,68.0,60.8,78,29.90,7.0,ESE,10.4,19.6,N/A,,Overcast,120,2013-02-21 22:35:00
4:55 PM,68.0,60.8,78,29.89,7.0,SE,17.3,23.0,N/A,,Scattered Clouds,130,2013-02-21 22:55:00
5:15 PM,68.0,60.8,78,29.89,10.0,SE,13.8,24.2,N/A,,Scattered Clouds,130,2013-02-21 23:15:00
5:35 PM,68.0,60.8,78,29.90,7.0,SE,13.8,19.6,N/A,,Mostly Cloudy,130,2013-02-21 23:35:00
5:55 PM,68.0,60.8,78,29.90,7.0,SE,12.7,20.7,N/A,,Overcast,130,2013-02-21 23:55:00
6:15 PM,68.0,62.6,83,29.90,7.0,SE,15.0,19.6,N/A,,Overcast,130,2013-02-22 00:15:00
6:35 PM,68.0,62.6,83,29.91,7.0,SE,11.5,19.6,N/A,,Overcast,130,2013-02-22 00:35:00
6:55 PM,68.0,62.6,83,29.92,7.0,SE,12.7,19.6,N/A,,Overcast,130,2013-02-22 00:55:00
7:15 PM,68.0,62.6,83,29.92,7.0,SE,12.7,18.4,N/A,,Overcast,130,2013-02-22 01:15:00
7:35 PM,68.0,62.6,83,29.93,7.0,SE,12.7,18.4,N/A,,Overcast,130,2013-02-22 01:35:00
7:55 PM,68.0,62.6,83,29.90,10.0,SE,18.4,25.3,N/A,,Overcast,130,2013-02-22 01:55:00
8:15 PM,68.0,64.4,88,29.92,7.0,SE,12.7,17.3,N/A,,Mostly Cloudy,140,2013-02-22 02:15:00
8:35 PM,68.0,64.4,88,29.92,7.0,SE,15.0,18.4,N/A,,Overcast,130,2013-02-22 02:35:00
8:55 PM,68.0,64.4,88,29.92,7.0,SE,9.2,-,N/A,,Overcast,130,2013-02-22 02:55:00
9:15 PM,68.0,64.4,88,29.92,7.0,SE,10.4,17.3,N/A,,Overcast,130,2013-02-22 03:15:00
9:35 PM,68.0,64.4,88,29.93,7.0,SE,11.5,18.4,N/A,,Overcast,130,2013-02-22 03:35:00
9:55 PM,68.0,64.4,88,29.92,7.0,SE,12.7,-,N/A,,Overcast,130,2013-02-22 03:55:00
10:15 PM,68.0,64.4,88,29.92,7.0,SE,10.4,18.4,N/A,,Overcast,140,2013-02-22 04:15:00
10:35 PM,68.0,64.4,88,29.92,7.0,SE,12.7,18.4,N/A,,Overcast,140,2013-02-22 04:35:00
10:55 PM,68.0,64.4,88,29.92,7.0,SE,11.5,-,N/A,,Overcast,140,2013-02-22 04:55:00
11:15 PM,68.0,66.2,94,29.92,7.0,SE,11.5,16.1,N/A,,Overcast,140,2013-02-22 05:15:00
11:35 PM,69.8,66.2,88,29.92,7.0,SE,13.8,19.6,N/A,,Overcast,140,2013-02-22 05:35:00
11:55 PM,68.0,66.2,94,29.92,7.0,SSE,12.7,18.4,N/A,,Overcast,150,2013-02-22 05:55:00